{"data":{"norad_id":65248,"epoch":"2026-05-25T02:05:24.717696Z","epoch_age_seconds":77678,"freshness":"FRESH","line1":"1 65248U 25179P   26145.08709164  .00001142  00000+0  83183-4 0  9996","line2":"2 65248  97.4484 187.8977 0001324 152.0067 208.1231 15.05652141 43320","mean_motion":15.05652141,"eccentricity":0.0001324,"inclination_deg":97.4484,"raan_deg":187.8977,"arg_perigee_deg":152.0067,"mean_anomaly_deg":208.1231,"bstar":8.3183e-5,"rev_number":4332,"period_min":95.639620918256,"perigee_km":548.58736699557,"apogee_km":550.42180648774,"semimajor_km":6927.6415867417,"source":"CELESTRAK","updated_at":"2026-05-25T13:38:20.726747Z"}}